DW1970 Bodega Bay CA US current weather conditions

sailwx.info

Wind from 267 at 8 knots

Air temperature 14.4° C
Dewpoint 12.8° C

Last reported at 2017-Jun-27 20:03 UTC.
Time now 2017-Jun-27 20:36 UTC

Location: N 38°23' W 123°04'.
View on Google Maps.

See reports from other nearby stations

  
Tides and Currents Weather Stations Pressure Air Temp Water Temp Dewpoint Dewpoint Depression Visibility Wind Speed Wind Dir Waves Ship Positions
date/time (UTC)wind fromknots sea level pressurealtimeterstation pressurevisibilityair tempwater tempwave heightnotes
2017-Jun-27 20:03 267 8 14.4
2017-Jun-27 19:48 257 8 14.4
2017-Jun-27 19:18 273 8 14.4
2017-Jun-27 19:03 244 7 15.0
2017-Jun-27 18:48 298 10 15.0
2017-Jun-27 18:33 324 9 15.0
2017-Jun-27 18:18 275 8 15.0
2017-Jun-27 18:03 297 9 14.4
2017-Jun-27 17:48 270 8 14.4
2017-Jun-27 17:33 286 8 14.4
2017-Jun-27 17:18 265 5 14.4
2017-Jun-27 17:03 257 3 15.0
2017-Jun-27 16:48 281 2 15.0
2017-Jun-27 16:33 252 1 13.9
2017-Jun-27 16:18 238 1 14.4
2017-Jun-27 16:03 231 1 14.4
2017-Jun-27 15:48 271 0 14.4
2017-Jun-27 15:33 287 14.4
2017-Jun-27 15:18 287 0 13.9
2017-Jun-27 15:03 287 13.3
2017-Jun-27 14:48 287 13.3
2017-Jun-27 14:32 287 12.8
2017-Jun-27 14:17 287 12.2
2017-Jun-27 14:03 287 11.7
2017-Jun-27 13:47 287 11.7
2017-Jun-27 13:17 287 11.1
2017-Jun-27 13:02 287 11.1
2017-Jun-27 12:47 287 11.7
2017-Jun-27 12:32 287 11.1
2017-Jun-27 12:17 287 11.1
2017-Jun-27 12:02 287 11.1
2017-Jun-27 11:47 287 11.1
2017-Jun-27 11:32 287 11.1
2017-Jun-27 11:17 287 11.1
2017-Jun-27 11:02 287 11.1
2017-Jun-27 10:47 287 11.1
2017-Jun-27 10:32 287 11.1
2017-Jun-27 10:17 274 0 11.7
2017-Jun-27 10:02 246 1 11.7
2017-Jun-27 09:47 270 0 11.7
2017-Jun-27 09:32 278 11.7
2017-Jun-27 09:17 278 0 11.7
2017-Jun-27 09:03 275 1 11.7
2017-Jun-27 08:32 274 2 11.7
2017-Jun-27 08:17 257 1 11.7
2017-Jun-27 08:02 285 2 11.7
2017-Jun-27 07:47 297 2 11.7
2017-Jun-27 07:32 296 2 12.2
2017-Jun-27 07:17 288 2 12.2
2017-Jun-27 07:02 292 2 12.2
2017-Jun-27 06:47 271 3 12.2
2017-Jun-27 06:32 284 3 12.8
2017-Jun-27 06:17 294 4 12.8
2017-Jun-27 06:02 263 3 12.8
2017-Jun-27 05:47 279 1 12.8
2017-Jun-27 05:32 273 3 12.8
2017-Jun-27 05:17 275 4 12.8
2017-Jun-27 05:01 271 2 12.8
2017-Jun-27 04:46 275 3 12.8
2017-Jun-27 04:31 271 3 12.8
2017-Jun-27 04:16 268 4 13.3
2017-Jun-27 04:01 257 3 13.3
2017-Jun-27 03:45 250 4 13.3
2017-Jun-27 03:30 260 4 13.3
2017-Jun-27 03:15 255 5 13.9
2017-Jun-27 03:01 250 4 13.9
2017-Jun-27 02:45 258 5 14.4
2017-Jun-27 02:30 259 5 15.0
2017-Jun-27 02:15 267 5 15.6
2017-Jun-27 02:00 241 6 15.6
2017-Jun-27 01:45 243 6 15.6
2017-Jun-27 01:30 279 6 15.6
2017-Jun-27 01:15 251 6 15.6
2017-Jun-27 01:00 238 6 16.1
2017-Jun-27 00:45 263 6 16.1
2017-Jun-27 00:30 289 5 16.7
2017-Jun-27 00:15 262 6 16.7
2017-Jun-27 00:00 278 6 16.1
2017-Jun-26 23:44 260 6 16.7
2017-Jun-26 23:29 244 6 17.2
2017-Jun-26 23:14 253 6 16.7
2017-Jun-26 22:59 260 6 16.7
2017-Jun-26 22:44 229 6 16.1
2017-Jun-26 22:29 246 6 16.7
2017-Jun-26 22:14 223 6 17.2
2017-Jun-26 21:59 254 6 16.7
2017-Jun-26 21:44 229 6 16.7
2017-Jun-26 21:29 256 6 16.7
2017-Jun-26 21:14 263 6 17.2
2017-Jun-26 20:59 284 6 16.7
2017-Jun-26 20:44 271 6 16.7
2017-Jun-26 20:28 285 6 16.7
2017-Jun-26 20:13 284 6 17.2
2017-Jun-26 19:58 271 6 16.7
2017-Jun-26 19:43 288 6 16.7
2017-Jun-26 19:29 246 6 16.7
2017-Jun-26 19:14 263 6 16.7
2017-Jun-26 18:59 271 6 16.1
2017-Jun-26 18:44 294 8 16.1
2017-Jun-26 18:29 295 6 16.7
2017-Jun-26 18:13 282 6 16.1
2017-Jun-26 17:58 281 6 16.7
2017-Jun-26 17:43 327 7 16.1
2017-Jun-26 17:28 267 6 15.6
2017-Jun-26 17:13 255 5 15.0
2017-Jun-26 16:58 258 5 15.0
2017-Jun-26 16:43 275 4 15.0
2017-Jun-26 16:28 281 4 14.4
2017-Jun-26 16:13 270 3 14.4
2017-Jun-26 15:58 281 2 13.9
2017-Jun-26 15:43 297 3 13.9
2017-Jun-26 15:28 276 2 13.3
2017-Jun-26 15:13 271 3 13.3
2017-Jun-26 14:58 289 3 13.3
2017-Jun-26 14:43 284 2 13.3
2017-Jun-26 14:28 302 4 13.3
2017-Jun-26 14:13 289 3 12.8
2017-Jun-26 13:58 285 3 12.8
2017-Jun-26 13:43 294 2 12.8
2017-Jun-26 13:28 306 3 12.8
2017-Jun-26 13:13 301 2 12.8
2017-Jun-26 12:58 284 3 12.8
2017-Jun-26 12:43 288 2 12.8
2017-Jun-26 12:28 313 4 12.8
2017-Jun-26 12:13 300 4 12.8
2017-Jun-26 11:58 303 3 12.8
2017-Jun-26 11:43 266 3 12.8
2017-Jun-26 11:28 259 4 12.8
2017-Jun-26 11:13 265 3 12.8
2017-Jun-26 10:58 275 3 12.8
2017-Jun-26 10:43 248 2 12.8
2017-Jun-26 10:28 271 3 12.8
2017-Jun-26 10:13 278 2 12.8
2017-Jun-26 09:58 281 3 12.8
2017-Jun-26 09:43 274 3 12.8
2017-Jun-26 09:28 277 2 12.8
2017-Jun-26 09:13 275 3 12.8
2017-Jun-26 08:57 292 3 12.8
2017-Jun-26 08:42 279 4 12.8
2017-Jun-26 08:28 271 4 12.8
2017-Jun-26 08:12 286 5 12.8
2017-Jun-26 07:57 282 5 12.8
2017-Jun-26 07:42 268 4 12.8
2017-Jun-26 07:27 288 5 12.8
2017-Jun-26 07:12 286 4 12.8
2017-Jun-26 06:57 279 4 12.8
2017-Jun-26 06:42 259 6 13.3
2017-Jun-26 06:27 299 6 12.8
2017-Jun-26 06:12 288 7 12.8
2017-Jun-26 05:57 263 5 12.8
2017-Jun-26 05:42 298 5 12.8
2017-Jun-26 05:27 262 5 12.8
2017-Jun-26 05:12 252 5 12.8
2017-Jun-26 04:57 259 5 12.8
2017-Jun-26 04:42 280 5 13.3
2017-Jun-26 04:27 256 5 13.3
2017-Jun-26 04:11 265 4 13.3
2017-Jun-26 03:56 269 5 13.3
2017-Jun-26 03:41 278 4 13.3
2017-Jun-26 03:26 269 4 13.3
2017-Jun-26 03:11 261 3 13.3
2017-Jun-26 02:56 262 3 13.3
2017-Jun-26 02:41 244 3 13.9
2017-Jun-26 02:26 279 4 13.9
2017-Jun-26 02:11 255 4 13.9
2017-Jun-26 01:56 260 5 15.0
2017-Jun-26 01:40 309 6 15.6
2017-Jun-26 01:26 278 5 14.4
2017-Jun-26 01:11 256 5 14.4
2017-Jun-26 00:56 253 5 14.4
2017-Jun-26 00:41 240 4 14.4
2017-Jun-26 00:25 251 4 14.4
2017-Jun-26 00:10 249 4 15.0
2017-Jun-25 23:55 251 4 15.0
2017-Jun-25 23:40 251 4 15.0
2017-Jun-25 23:25 257 4 15.0
2017-Jun-25 23:10 264 5 15.0
2017-Jun-25 22:55 230 4 15.0
2017-Jun-25 22:25 252 4 15.6
2017-Jun-25 22:10 256 4 16.1
2017-Jun-25 21:55 270 4 15.6
2017-Jun-25 21:40 245 4 15.6
2017-Jun-25 21:24 265 5 15.0
2017-Jun-25 21:10 271 5 15.0
2017-Jun-25 20:54 239 5 15.0
2017-Jun-25 20:39 248 4 14.4
2017-Jun-25 20:24 270 4 15.0
2017-Jun-25 20:09 274 4 14.4